Current Version              Previous Version:    01  02  03  04  05  06  07  08  09  10  11  12  13  14  15  16  17  18  19  20  21  22  23  24  25  26  27  28  29  30  
   31  32  33  34  35  36  37  38  39  40  41  42  43  44  45  46  47  48  49  50  51  52  53  54  55  56  57  58  59  60  

[Printable]
149
ASUS44 KFWD 011203
RWRTX
NORTH TEXAS HOURLY WEATHER ROUNDUP
NATIONAL WEATHER SERVICE FORT WORTH TX
700 AM CDT MON SEP 01 2014

NOTE: "FAIR" INDICATES FEW OR NO CLOUDS BELOW 12,000 FEET WITH NO
SIGNIFICANT WEATHER AND/OR OBSTRUCTIONS TO VISIBILITY.

TXZ118-119-011300-
DALLAS/FORT WORTH METROPLEX

CITY           SKY/WX    TMP DP  RH WIND       PRES   REMARKS
DFW AIRPORT    PTCLDY    78  71  79 S16       29.89R
6HR MIN TEMP:  78; 6HR MAX TEMP:  82;

DALLAS LOVE    PTCLDY    78  71  79 S16G22    29.90S
6HR MIN TEMP:  78; 6HR MAX TEMP:  82;

FTW MEACHAM    PTCLDY    78  72  81 S15       29.88R
6HR MIN TEMP:  78; 6HR MAX TEMP:  82;

DAL-EXECUTIVE  CLEAR     79  71  76 S12G23    29.90S
6HR MIN TEMP:  78; 6HR MAX TEMP:  80;

FTW-ALLIANCE   PTCLDY    76  72  87 S10G17    29.89R
6HR MIN TEMP:  76; 6HR MAX TEMP:  80;

FTW-NAS-JRB    CLEAR     80  70  71 S17G25    29.93R
6HR MIN TEMP:  80; 6HR MAX TEMP:  84;

FTW-SPINKS     CLEAR     77  72  83 S13G21    29.91R
ARLINGTON      CLEAR     77  71  82 S13G21    29.90R
6HR MIN TEMP:  77; 6HR MAX TEMP:  81;

GRAND PRAIRIE  CLEAR     77  70  78 MISG      29.91R
ADDISON        MOCLDY    77  70  78 S12G22    29.91S
MESQUITE       MOCLDY    75  72  88 SE10      29.91F
LANCASTER      PTCLDY    76  70  82 S9        29.92S
6HR MIN TEMP:  75; 6HR MAX TEMP:  78;

$$

TXZ091>094-102>105-117-120-121-131>134-011300-
NORTH CENTRAL TEXAS

CITY           SKY/WX    TMP DP  RH WIND       PRES   REMARKS
SHRMAN/DENISON CLEAR     76  70  81 S14       29.91R
6HR MIN TEMP:  76; 6HR MAX TEMP:  81;

GAINESVILLE    CLEAR     74  70  86 S9        29.91R
6HR MIN TEMP:  74; 6HR MAX TEMP:  80;

BOWIE          CLEAR     75  71  86 SE7       29.88S
6HR MIN TEMP:  75; 6HR MAX TEMP:  81;

BRIDGEPORT     CLEAR     77  68  74 S6        29.90R
6HR MIN TEMP:  77; 6HR MAX TEMP:  82;

DECATUR        CLEAR     75  71  85 S9        29.90R
6HR MIN TEMP:  75; 6HR MAX TEMP:  81;

DENTON         CLEAR     76  71  85 S13       29.89R
6HR MIN TEMP:  76; 6HR MAX TEMP:  81;

MCKINNEY       MOCLDY    77  71  82 S16G26    29.90S
6HR MIN TEMP:  76; 6HR MAX TEMP:  80;

GREENVILLE     CLOUDY    77  70  78 S15G23    29.92S
ROCKWALL       MOCLDY    76  73  90 S14G23    29.90S
6HR MIN TEMP:  75; 6HR MAX TEMP:  79;

TERRELL        CLOUDY    79  74  84 S14       29.93S
6HR MIN TEMP:  77; 6HR MAX TEMP:  80;

WAXAHACHIE     CLEAR     76  70  82 S9        29.93R
6HR MIN TEMP:  75; 6HR MAX TEMP:  78;

CLEBURNE       CLEAR     77  75  94 S10G20    29.93R
GRANBURY       CLEAR     79  71  77 SE14      29.90S
6HR MIN TEMP:  79; 6HR MAX TEMP:  84;

$$

TXZ083>090-098>101-113>116-127>130-139>142-154-155-011300-
WESTERN NORTH TEXAS

CITY           SKY/WX    TMP DP  RH WIND       PRES   REMARKS
WICHITA FALLS  CLEAR     78  70  76 S16       29.83R
6HR MIN TEMP:  78; 6HR MAX TEMP:  83;

WF-KICKAPOO    CLEAR     78  68  71 S8        29.85S
6HR MIN TEMP:  78; 6HR MAX TEMP:  83;

VERNON         CLEAR     79  67  68 S13       29.82S
6HR MIN TEMP:  79; 6HR MAX TEMP:  93;

ABILENE        CLEAR     77  69  76 S15G24    29.88R
6HR MIN TEMP:  77; 6HR MAX TEMP:  84;

ABILENE-DYESS  CLEAR     76  69  79 S15       29.87R
6HR MIN TEMP:  76; 6HR MAX TEMP:  84;

BRECKENRIDGE   CLEAR     79  69  71 S15G21    29.88R
6HR MIN TEMP:  79; 6HR MAX TEMP:  85;

GRAHAM         CLEAR     77  69  76 S8        29.86R
6HR MIN TEMP:  77; 6HR MAX TEMP:  84;

MINERAL WELLS  CLEAR     76  70  82 S9G18     29.88R
6HR MIN TEMP:  76; 6HR MAX TEMP:  82;

STEPHENVILLE   CLEAR     75  69  82 S10       29.94R
6HR MIN TEMP:  75; 6HR MAX TEMP:  80;

COMANCHE         N/A     75  68  80 S15G22    29.92R
6HR MIN TEMP:  75; 6HR MAX TEMP:  82;

BROWNWOOD      PTCLDY    75  68  78 S9        29.93R
COLEMAN        CLEAR     74  67  78 S10       29.92S
6HR MIN TEMP:  74; 6HR MAX TEMP:  81;

BRADY          CLEAR     73  68  83 S9        29.94R
$$

TXZ143>147-156>162-174-175-011300-
CENTRAL TEXAS

CITY           SKY/WX    TMP DP  RH WIND       PRES   REMARKS
WACO           MOCLDY    77  73  87 S13       29.93R
6HR MIN TEMP:  76; 6HR MAX TEMP:  80;

WACO-TSTC      PTCLDY    77  73  88 S12       29.93
WACO-MCGREGOR  PTCLDY    75  70  83 S9        29.94R
6HR MIN TEMP:  75; 6HR MAX TEMP:  79;

HILLSBORO      CLEAR     76  71  85 SE14      29.93R
6HR MIN TEMP:  76; 6HR MAX TEMP:  80;

CORSICANA      MOCLDY    77  73  87 S12       29.95R
6HR MIN TEMP:  77; 6HR MAX TEMP:  79;

MEXIA          CLOUDY    75  73  94 S7        29.94S
6HR MIN TEMP:  74; 6HR MAX TEMP:  76;

HEARNE           N/A     76  74  95 SE3       29.96R
6HR MIN TEMP:  74; 6HR MAX TEMP:  76;

CAMERON        CLEAR     76  74  95 SE3       29.94R
6HR MIN TEMP:  76; 6HR MAX TEMP:  78;

TEMPLE         CLEAR     75  70  83 SE10      29.93S
6HR MIN TEMP:  75; 6HR MAX TEMP:  79;

KILLEEN        PTCLDY    75  72  88 S9        29.94R
KILLEEN-SKYLRK PTCLDY    77  68  73 S9        29.93S
6HR MIN TEMP:  77; 6HR MAX TEMP:  79;

FORT HOOD      PTCLDY    79  73  82 SE8       29.94R
6HR MIN TEMP:  79; 6HR MAX TEMP:  81;

LAMPASAS       CLEAR     76  73  91 S3        29.94R
6HR MIN TEMP:  76; 6HR MAX TEMP:  79;

$$

TXZ095>097-106>112-122>126-135>138-148>153-164>167-011300-
EAST TEXAS

CITY           SKY/WX    TMP DP  RH WIND       PRES   REMARKS
PARIS          CLOUDY    75  66  73 S12       29.94R
6HR MIN TEMP:  73; 6HR MAX TEMP:  75;

SULPHUR SPRNGS MOCLDY    77  73  86 S14       29.95S
6HR MIN TEMP:  76; 6HR MAX TEMP:  78;

MOUNT PLEASANT PTCLDY    76  73  92 S7        29.96R
6HR MIN TEMP:  75; 6HR MAX TEMP:  77;

GILMER         CLOUDY    79  75  89 S7        29.97S
MINEOLA        MOCLDY    77  75  94 S8        29.96R
TYLER          CLOUDY    77  73  87 S10       29.96R
6HR MIN TEMP:  76; 6HR MAX TEMP:  78;

LONGVIEW       MOCLDY    77  73  87 S8        29.96R
6HR MIN TEMP:  76; 6HR MAX TEMP:  79;

MARSHALL       CLOUDY    78  75  90 S6        29.99S
6HR MIN TEMP:  76; 6HR MAX TEMP:  78;

ATHENS         CLOUDY    75  73  94 S9        29.95R
PALESTINE      CLOUDY    77  75  93 S7        29.97S
JACKSONVILLE   CLOUDY    76  74  96 S10       29.99F FOG
HENDERSON      CLOUDY    77  75  92 S5        29.98R
6HR MIN TEMP:  74; 6HR MAX TEMP:  77;

NACOGDOCHES    CLOUDY    77  73  88 S6        29.98S
6HR MIN TEMP:  73; 6HR MAX TEMP:  77;

LUFKIN         CLOUDY    79  75  87 SE8       29.98R FOG
6HR MIN TEMP:  76; 6HR MAX TEMP:  79;

$$

SUPPLEMENTAL OBSERVATIONS (CENTRAL)

CITY           SKY/WX    TMP DP  RH WIND       PRES   REMARKS
$$

SUPPLEMENTAL OBSERVATIONS (WEST)

CITY           SKY/WX    TMP DP  RH WIND       PRES   REMARKS
$$

SUPPLEMENTAL OBSERVATIONS (EAST)

CITY           SKY/WX    TMP DP  RH WIND       PRES   REMARKS
$$

SUPPLEMENTAL OBSERVATIONS ARE A COLLECTION OF AUTOMATED INSTRUMENTS
THAT ARE MAINTAINED BY A VARIETY OF FEDERAL AND STATE AGENCIES.
CERTAIN ELEMENTS...SUCH AS HUMIDITY VALUES AND SUSTAINED WIND
SPEEDS...MAY BE APPROXIMATED.